This demonstration page uses our WeatherBlox Daily Observations layout. Learn more.

39.29038, -76.61219

Hourly Observations for September 23, 2019

Temp ( °F °C ) Dew Point ( °F °C ) Humidity (%) Winds ( mph kmh ) Pressure ( in mb ) Visibility ( mi km ) Precip ( " mm )
12:54 am 00:54 undefined 76 24.4 67 19.4 74 74 undefined N/A 30 1016 N/A 0 0
1:54 am 01:54 undefined 75 23.9 66 18.9 74 74 undefined N/A 29.99 1016 N/A 0 0
2:54 am 02:54 undefined 75 23.9 66 18.9 74 74 undefined N/A 29.97 1015 N/A 0 0
3:54 am 03:54 undefined 74 23.3 65 18.3 74 74 undefined N/A 29.96 1014 N/A 0 0
4:54 am 04:54 undefined 74 23.3 65 18.3 74 74 undefined N/A 29.95 1014 N/A 0 0
5:54 am 05:54 undefined 73 22.8 65 18.3 76 76 undefined N/A 29.95 1014 N/A 0 0
6:54 am 06:54 undefined 73 22.8 65 18.3 76 76 undefined N/A 29.95 1014 N/A 0 0
7:54 am 07:54 undefined 74 23.3 65 18.3 74 74 undefined N/A 29.96 1015 N/A 0 0
8:54 am 08:54 undefined 77 25 65 18.3 66 66 undefined N/A 29.96 1015 N/A 0 0
9:54 am 09:54 undefined 81 27.2 65 18.3 58 58 undefined N/A 29.96 1014 N/A 0 0
10:54 am 10:54 undefined 87 30.6 63 17.2 45 45 undefined N/A 29.93 1014 N/A 0 0
11:54 am 11:54 undefined 91 32.8 59 15 34 34 undefined N/A 29.91 1013 N/A 0 0
12:54 pm 12:54 undefined 92 33.3 59 15 33 33 undefined N/A 29.89 1012 N/A 0 0
1:54 pm 13:54 undefined 94 34.4 58 14.4 30 30 undefined N/A 29.86 1011 N/A 0 0
2:54 pm 14:54 undefined 95 35 59 15 30 30 undefined N/A 29.83 1010 N/A 0 0
3:54 pm 15:54 undefined 94 34.4 57 13.9 29 29 undefined N/A 29.82 1010 N/A 0 0
4:54 pm 16:54 undefined 91 32.8 57 13.9 32 32 undefined N/A 29.8 1009 N/A 0 0
5:54 pm 17:54 undefined 90 32.2 58 14.4 34 34 undefined N/A 29.8 1009 N/A 0 0
6:54 pm 18:54 undefined 89 31.7 59 15 36 36 undefined N/A 29.79 1009 N/A 0 0
7:54 pm 19:54 undefined 86 30 61 16.1 43 43 undefined N/A 29.8 1009 N/A 0 0
8:54 pm 20:54 undefined 83 28.3 63 17.2 51 51 undefined N/A 29.81 1010 N/A 0 0
9:54 pm 21:54 undefined 80 26.7 65 18.3 60 60 undefined N/A 29.82 1010 N/A 0 0
10:54 pm 22:54 undefined 79 26.1 65 18.3 62 62 undefined N/A 29.82 1010 N/A 0 0
11:54 pm 23:54 undefined 78 25.6 65 18.3 64 64 undefined N/A 29.83 1010 N/A 0 0

Powered by AerisWeather